Preview of NWS' New Version of Forecast
This preview is not operational and should not be used for support decisions.

Regional Weather Roundup (RWR)

Issued by National Weather Service (NWS)

                            
000
ASPQ40 PGUM 190410
RWRPQ 
WEATHER ROUNDUP FOR THE MARIANAS AND MICRONESIA
NATIONAL WEATHER SERVICE TIYAN GU
200 PM CHST WED JUN 19 2019

GUZ001>004-190500-
MARIANA ISLANDS-
  
CITY           SKY/WX    TMP DP  RH WIND       PRES   REMARKS
GUAM AIRPORT   MOSUNNY   88  73  62 E14G21    29.82F HX  96           
ANDERSEN AFB   MOSUNNY   88  73  62 SE15      29.82F HX  96           
ROTA AIRPORT   MOSUNNY   86  72  62 E17       29.81F HX  92           
TINIAN AP      MOSUNNY   88  73  62 E14       29.81F HX  96           
SAIPAN AP      MOSUNNY   88  73  62 E15       29.82F HX  96           

$$

PMZ161-190500-
REPUBLIC OF PALAU-
  
CITY           SKY/WX    TMP DP  RH WIND       PRES   REMARKS
KOROR AP       PTSUNNY   90  75  62 E8        29.77F HX 100           
KOROR WSO      NOT AVBL                                               

$$

PMZ171>174-190500-
FEDERATED STATES OF MICRONESIA-
  
CITY           SKY/WX    TMP DP  RH WIND       PRES   REMARKS
YAP AIRPORT    MOSUNNY   90  79  70 NE12      29.75F HX 105           
CHUUK AP       CLOUDY    84  79  84 VRB5      29.77F HX  96           
POHNPEI AP     NOT AVBL                                               
POHNPEI WSO    CLOUDY    88  75  66 E5        29.79F HX  97           
KOSRAE AP      NOT AVBL                                               

$$

PMZ181-190500-
REPUBLIC OF THE MARSHALL ISLANDS-
  
CITY           SKY/WX    TMP DP  RH WIND       PRES   REMARKS
KWAJALEIN AP   MOSUNNY   88  77  70 E12       29.77F HX 100           
MAJURO AP      PTSUNNY   86  77  74 NE7       29.75F HX  97           
MAJURO WSO     LGT RAIN  82  79  89 E5        29.74F HX  93           

$$